Lexington Weather

Lexington, Massachusetts, USA

34°F
4/16/2021 11:04am 
  • Lexington Conditions: Light snow, Mist, Overcast
  • Temperature: 34.0°F / 1.1°CWarmer 0.2°F than last hour.
  • Dew Point: 32.7°FIncreased 0.2°Fsince last hour.
  • Relative Humidity: 95
  • Wind: Wind from NNW NNW 2 mph, 10-min avg: 2 mph, gust: 4 mph
  • Barometer: 29.46 inFalling 0.03  inHg/hr Falling Slowly
  • Visibility: 1 mile
  • Snow Today: 1.7 in
  •   

Regional Weather Roundup
for Boston / Norton, MA

        
000
ASUS41 KBOX 092005
RWRBOX

REGIONAL WEATHER ROUNDUP
NATIONAL WEATHER SERVICE BOSTON/NORTON MA
400 PM EDT FRI APR 09 2021

NOTE:  "FAIR" INDICATES FEW OR NO CLOUDS BELOW 12,000 FEET WITH NO 
SIGNIFICANT WEATHER AND/OR OBSTRUCTIONS TO VISIBILITY.

MAZALL-092100-
EASTERN MASSACHUSETTS
  
CITY           SKY/WX    TMP DP  RH WIND       PRES   REMARKS
BOSTON         MOSUNNY   58  44  60 E20       30.11F                  
BEVERLY        SUNNY     56  45  66 SE12      30.11F                  
LAWRENCE       SUNNY     67  45  45 SE7       30.10F                  
BEDFORD        SUNNY     69  45  41 E10       30.07F                  
BLUE HILL        N/A     66  46  48 NE7       30.08F                  
NORWOOD        SUNNY     72  41  32 SE12      30.08F                  
MARSHFIELD     SUNNY     57  46  67 SE9       30.12F                  
PLYMOUTH       SUNNY     64  44  48 S8        30.11F                  
TAUNTON        SUNNY     66  43  43 SW12      30.10F                  
NEW BEDFORD    SUNNY     63  44  50 S9        30.12F                  
$$

MAZALL-092100-
CAPE COD AND THE ISLANDS
  
CITY           SKY/WX    TMP DP  RH WIND       PRES   REMARKS
FALMOUTH       SUNNY     61  45  55 S9        30.14F                  
HYANNIS        SUNNY     56  44  64 S8        30.13F                  
CHATHAM        SUNNY     53  41  63 SE5       30.15F                  
PROVINCETOWN   SUNNY     60  45  57 MISG        N/A                   
NANTUCKET      SUNNY     52  42  69 SE9       30.15S                  
MARTHAS VNYRD  SUNNY     56  44  64 S9        30.14F                  
$$
 
MAZALL-092100-
CENTRAL AND WESTERN MASSACHUSETTS
  
CITY           SKY/WX    TMP DP  RH WIND       PRES   REMARKS
WORCESTER      MOSUNNY   68  37  32 S7        30.09F                  
FITCHBURG      SUNNY     71  39  31 S8G17     30.07F                  
ORANGE         MOSUNNY   70  37  29 S8        30.07F                  
SPRINGFIELD    PTSUNNY   70  38  31 W10       30.06F                  
WESTFIELD      PTSUNNY   70  39  32 SW14      30.07F                  
NORTH ADAMS    MOSUNNY   74  41  30 S10G18    30.03F                  
PITTSFIELD     MOSUNNY   70  39  32 S8        30.04F                  
$$
 
RIZALL-092100-
RHODE ISLAND
  
CITY           SKY/WX    TMP DP  RH WIND       PRES   REMARKS
PROVIDENCE     MOSUNNY   58  45  62 SE16      30.13S                  
NEWPORT        SUNNY     51  44  77 S12       30.14F                  
BLOCK ISLAND   LGT RAIN  45  42  89 SW14      30.16F VSB 1            
SMITHFIELD     SUNNY     64  44  48 VRB7      30.11S                  
WESTERLY       MOSUNNY   48  42  80 S7        30.15F                  
$$
 
CTZALL-092100-
CONNECTICUT
  
CITY           SKY/WX    TMP DP  RH WIND       PRES   REMARKS
BRADLEY INTL   PTSUNNY   70  40  33 S13G18    30.08F                  
HARTFORD       MOSUNNY   68  43  40 S9        30.09F                  
BRIDGEPORT     MOSUNNY   53  45  74 SE8       30.15F                  
DANBURY        PTSUNNY   63  41  44 VRB6      30.12F                  
GROTON         PTSUNNY   49  44  83 S9        30.16F                  
NEW HAVEN      MOSUNNY   54  46  74 S8        30.15F                  
CHESTER        FAIR      59  45  58 S12       30.14S                  
MERIDEN        MOSUNNY   60  42  51 S12       30.12F                  
WILLIMANTIC    PTSUNNY   66  43  43 S10       30.10F                  
OXFORD         MOSUNNY   60  45  57 S12       30.13F                  
$$

MEZ002-015-021-024-NHZ003-005-008-011-012-014-VTZ005-008-092100-
NORTHERN NEW ENGLAND
  
CITY           SKY/WX    TMP DP  RH WIND       PRES   REMARKS
PORTLAND ME    MOSUNNY   57  45  64 S13       30.10F                  
BANGOR ME      PTSUNNY   68  46  45 S10       30.05F                  
CONCORD NH     SUNNY     72  41  32 SE10      30.06F                  
MANCHESTER NH  MOSUNNY   72  40  31 S7        30.05F                  
NASHUA NH      SUNNY     72  42  34 VRB3      30.07F                  
PORTSMOUTH NH  MOSUNNY   60  43  52 SE13      30.11F                  
JAFFREY NH     SUNNY     70  39  32 VRB3      30.07F                  
KEENE NH       MOSUNNY   72  39  30 S8        30.05F                  
BURLINGTON VT  MOSUNNY   75  38  26 S12       29.99F                  
MT. WASHINGTON CLOUDY    48  36  61 SW7         N/A                   
$$

NYZ052-076-092100-
EASTERN NEW YORK
  
CITY           SKY/WX    TMP DP  RH WIND       PRES   REMARKS
ALBANY         PTSUNNY   69  41  36 S14       30.04F                  
NEW YORK CITY  PTSUNNY   52  41  66 S7        30.15F                  
$$
 
ANZALL-092100-
MARINE OBSERVATIONS
  
STATION/POSITION TIME  TEMP    WIND        PRES    VSBY  WAVE
                       AIR SEA DIR/SP/G                  HT/PER
                 (UTC) (F)     (DEG/KT/KT) (MB)    (MI)  (FT/S)
BOSTON BUOY      1940   47 45  130/  8/ 10 1020.7F
BUZZARDS BAY     1900          220/  7/  8 1022.3F
NANTUCKET SOUND  1940      46                N/A
MASS BAY-STELLWA 1904   47     140/ 10/ 12 1019.7F  1 7/8  3/11
ISLE OF SHOALS   1900   48     150/ 17/ 18 1019.6F
S OF BLOCK IS    1926      47                N/A           3/ 9
$$

......................KEY.........................
  SKY/WX - SKY CONDITION/PRESENT WEATHER
  TMP    - TEMPERATURE IN FAHRENHEIT
  DWPT   - DEWPOINT IN FAHRENHEIT
  RH     - RELATIVE HUMIDITY IN PERCENT
  WIND   - DIRECTION AND SPEED IN MPH
  PRES   - MEAN SEA LEVEL PRESSURE IN INCHES OF HG
  WCI    - WIND CHILL INDEX
  VSB    - VISIBILITY IN MILES
  HX     - HEAT INDEX
  TC     - TEMPERATURE IN CELSIUS
  VRB    - VARIABLE WIND DIRECTION
  N/A    - NOT AVAILABLE
  
      

Other recent Regional Weather Roundups

Fri Apr 16, 10:05am

Fri Apr 16, 9:04am

Fri Apr 16, 8:04am

Fri Apr 16, 7:04am

Fri Apr 16, 6:04am

Fri Apr 16, 5:04am

Fri Apr 16, 4:04am

Fri Apr 16, 3:04am

Fri Apr 16, 2:04am

Fri Apr 16, 1:04am

Fri Apr 16, 12:04am

Thu Apr 15, 11:05pm

Thu Apr 15, 10:04pm

Thu Apr 15, 9:04pm

Thu Apr 15, 8:04pm

Thu Apr 15, 7:05pm

Thu Apr 15, 6:04pm

Thu Apr 15, 5:05pm

Thu Apr 15, 4:04pm

Thu Apr 15, 3:05pm

Thu Apr 15, 2:04pm

Thu Apr 15, 1:05pm

Thu Apr 15, 12:04pm

Thu Apr 15, 11:04am

Thu Apr 15, 10:05am

Thu Apr 15, 9:04am

Thu Apr 15, 8:04am

Thu Apr 15, 7:04am

Thu Apr 15, 6:04am

Thu Apr 15, 5:04am

Thu Apr 15, 4:04am

Thu Apr 15, 3:04am

Thu Apr 15, 2:04am

Thu Apr 15, 1:04am

Thu Apr 15, 12:04am

Wed Apr 14, 11:04pm

Wed Apr 14, 10:04pm

Wed Apr 14, 9:04pm

Wed Apr 14, 8:04pm

Wed Apr 14, 7:04pm

Wed Apr 14, 6:04pm

Wed Apr 14, 5:05pm

Wed Apr 14, 4:04pm

Wed Apr 14, 3:05pm

Wed Apr 14, 2:04pm

Wed Apr 14, 1:05pm

Wed Apr 14, 12:04pm

Wed Apr 14, 11:04am

Wed Apr 14, 10:04am

Wed Apr 14, 9:04am

Wed Apr 14, 8:04am

Wed Apr 14, 7:04am

Wed Apr 14, 6:04am

Wed Apr 14, 5:04am

Wed Apr 14, 4:04am

Wed Apr 14, 3:04am

Wed Apr 14, 2:04am

Wed Apr 14, 1:04am

Wed Apr 14, 12:04am

Tue Apr 13, 11:04pm

Tue Apr 13, 10:05pm

Tue Apr 13, 9:05pm

Tue Apr 13, 8:05pm

Tue Apr 13, 7:04pm

Tue Apr 13, 6:04pm

Tue Apr 13, 5:05pm

Tue Apr 13, 4:04pm

Tue Apr 13, 3:04pm

Tue Apr 13, 2:05pm

Tue Apr 13, 1:04pm

Tue Apr 13, 12:05pm

Tue Apr 13, 11:05am

Tue Apr 13, 10:04am

Tue Apr 13, 9:04am

Tue Apr 13, 8:04am

Tue Apr 13, 7:04am

Tue Apr 13, 6:04am

Tue Apr 13, 5:04am

Tue Apr 13, 4:04am

Tue Apr 13, 3:04am

Tue Apr 13, 2:04am

Tue Apr 13, 1:04am

Tue Apr 13, 12:05am

Mon Apr 12, 11:04pm

Mon Apr 12, 10:04pm

Mon Apr 12, 9:04pm

Mon Apr 12, 8:04pm

Mon Apr 12, 7:05pm

Mon Apr 12, 6:04pm

Mon Apr 12, 5:04pm

Mon Apr 12, 4:04pm

Mon Apr 12, 3:05pm

Mon Apr 12, 2:04pm

Mon Apr 12, 1:05pm

Mon Apr 12, 12:04pm

Mon Apr 12, 11:04am

Mon Apr 12, 10:04am

Mon Apr 12, 9:04am

Mon Apr 12, 8:04am

Mon Apr 12, 7:04am

Mon Apr 12, 6:04am

Mon Apr 12, 5:04am

Mon Apr 12, 4:04am

Mon Apr 12, 3:04am

Mon Apr 12, 2:04am

Mon Apr 12, 1:05am

Mon Apr 12, 12:04am

Sun Apr 11, 11:04pm

Sun Apr 11, 10:04pm

Sun Apr 11, 9:04pm

Sun Apr 11, 8:04pm

Sun Apr 11, 7:04pm

Sun Apr 11, 6:05pm

Sun Apr 11, 5:05pm

Sun Apr 11, 4:04pm

Sun Apr 11, 3:05pm

Sun Apr 11, 2:05pm

Sun Apr 11, 1:05pm

Sun Apr 11, 12:04pm

Sun Apr 11, 11:05am

Sun Apr 11, 10:05am

Sun Apr 11, 9:04am

Sun Apr 11, 8:04am

Sun Apr 11, 7:04am

Sun Apr 11, 6:04am

Sun Apr 11, 5:04am

Sun Apr 11, 4:04am

Sun Apr 11, 3:04am

Sun Apr 11, 2:04am

Sun Apr 11, 1:05am

Sun Apr 11, 12:04am

Sat Apr 10, 11:05pm

Sat Apr 10, 10:04pm

Sat Apr 10, 9:04pm

Sat Apr 10, 8:04pm

Sat Apr 10, 7:05pm

Sat Apr 10, 6:04pm

Sat Apr 10, 5:04pm

Sat Apr 10, 4:04pm

Sat Apr 10, 3:04pm

Sat Apr 10, 2:05pm

Sat Apr 10, 1:04pm

Sat Apr 10, 12:04pm

Sat Apr 10, 11:04am

Sat Apr 10, 10:04am

Sat Apr 10, 9:04am

Sat Apr 10, 8:04am

Sat Apr 10, 7:04am

Sat Apr 10, 6:04am

Sat Apr 10, 5:04am

Sat Apr 10, 4:04am

Sat Apr 10, 3:04am

Sat Apr 10, 2:04am

Sat Apr 10, 1:05am

Sat Apr 10, 12:04am

Fri Apr 9, 11:04pm

Fri Apr 9, 10:05pm

Fri Apr 9, 9:04pm

Fri Apr 9, 8:05pm

Fri Apr 9, 7:05pm

Fri Apr 9, 6:04pm

Fri Apr 9, 5:04pm

Fri Apr 9, 3:05pm

Fri Apr 9, 2:04pm

Fri Apr 9, 1:04pm

Fri Apr 9, 12:04pm

Fri Apr 9, 11:05am

Meta data:

ID: a3d8aef6-4e2b-429f-989e-8dbbcaf4b1f8
Link: https://api.weather.gov/products/a3d8aef6-4e2b-429f-989e-8dbbcaf4b1f8